星链-36315(STARLINK-36315)

导读

STARLINK-36315是美国于2026年2月11日发射的卫星,属于SpaceX星链(Starlink)低轨卫星互联网星座。星链旨在为全球提供高速低延迟宽带互联网覆盖,这颗卫星入轨将进一步补全星座卫星规模,提升星座服务覆盖范围与网络稳定性。

基本信息
目录编号:
67731
目录名称:
STARLINK-36315
国际标识:
2026-026L
轨道中心:
EARTH
卫星名称:
星链-36315
卫星全名:
星链-36315(STARLINK-36315)
卫星状态:
在轨 (已飞行122 天)
发射日期:
2026-02-11 UTC
国别 :
美国 (US)
星等 :
--
轨道信息
数据来源 国际轨道数据
星历时间: 2026-06-12T10:18:44+0800
1天前
查看轨道信息
半长轴: 6843.639km
偏心率: 0.000096
轨道倾角: 97.284°
近地点辐角 125.968°
升交点赤经 216.358°
平近点角 234.165°
近地点: 464.845km
远地点: 466.159km
周期: 93.905分钟
每日圈数: 15.33459
详细信息
固有亮度:
5
最大亮度:
2.5
卫星平台:
Starlink V1.0
覆盖范围:
全球
运营商:
太空探索技术公司
运营商所在国:
美国
制造商(研发单位):
太空探索技术公司
制造商所在国:
美国
使用方式:
暂无
卫星简介
Starlink 计划是 SpaceX 推出的全球卫星互联网项目,通过发射低轨道卫星,为全球尤其是偏远地区提供高速、低延迟的互联网服务。自 2019 年起,Starlink 已部署数千颗卫星,旨在缩小全球数字鸿沟,推动互联网普及。该项目还为军事、航空等行业提供通信支持,带来广泛经济效益。
2D轨道图
3D轨道图
轨道高度分析图
轨道倾角分析图
轨道综合分析图
查看轨道综合分析图